Skip Page Navigation
NASA JPL Caltech
NASA Logo - Jet Propulsion Laboratory + View the NASA Portal
+ Near-Earth Object (NEO) Program
Search JPL
JPL Home Earth Solar System Stars & Galaxies Technology
JPL Solar System Dynamics
BODIES ORBITS EPHEMERIDES TOOLS PHYSICAL DATA DISCOVERY FAQ SITE MAP
JPL Small-Body Database Browser
Search: [ help ]  
7007 Timjull (1981 EK34)
Classification: Main-belt Asteroid          SPK-ID: 2007007
Ephemeris | Orbit Diagram | Orbital Elements | Physical Parameters | Discovery Circumstances ]

[ show orbit diagram ]
Orbital Elements at Epoch 2456400.5 (2013-Apr-18.0) TDB
Reference: MPO250278 (heliocentric ecliptic J2000)
 Element Value Uncertainty (1-sigma)   Units 
e 0.1551302 n/a  
a 2.4025597 n/a AU
q 2.0298501 n/a AU
i 0.72673 n/a deg
node 349.46812 n/a deg
peri 263.46350 n/a deg
M 163.59675 n/a deg
tp 2455782.3670653
(2011-Aug-08.86706530)
n/a JED
period 1360.2217433
3.72
n/a
n/a
d
yr
n 0.26466273 n/a deg/d
Q 2.7752693 n/a AU
  Orbit Determination Parameters
   # obs. used (total)      698  
   first obs. used      1978-??-??  
   last obs. used      2013-01-22  
   # oppositions      14  
   planetary ephem.      DE403  
   condition code      0  
   fit RMS      0.54  
   data source      MPC:mpn  
   producer      MPCLINUX  

Additional Information
 T_jup = 3.508 

Ephemeris | Orbit Diagram | Orbital Elements | Physical Parameters | Discovery Circumstances ]

Physical Parameter Table
Parameter Symbol Value Units Sigma Reference Notes
absolute magnitude H 14.9 mag n/a PDS3 (MPC 27292)  

7007 Timjull           Discovered 1981 Mar. 2 by S. J. Bus at Siding Spring in the course of the U.K. Schmidt-Caltech Asteroid Survey.
A. J. Timothy Jull (b. 1951) is a senior research scientist at the University of Arizona. In addition to running a world-class laboratory for the measurement of terrestrial ages of meteorites, he is the editor of the journal Meteoritics and Planetary Science.
NOTE: some special characters may not display properly (any characters within {} are an attempt to place the proper accent above a character)
Reference: 20060809/MPCPages.arcLast Updated: 2007-08-08
Ephemeris | Orbit Diagram | Orbital Elements | Physical Parameters | Discovery Circumstances ]
ABOUT SSD CREDITS/AWARDS PRIVACY/COPYRIGHT GLOSSARY LINKS
FirstGov 2013-May-22 20:50 UT
(server date/time)  
NASA Home Page
Site Manager:   Donald K. Yeomans
Webmaster  Alan B. Chamberlin